Weather in Parunovka

Russia / Amur Oblast     50°54′38″N   128°42′50″E
temp.,
°C
wind,
m/s
gust,
m/s
humid.,
%
clouds,
%
prec.,
mm/h
press.,
hPa
HPBL,
m
4 march, thu
thu400:00−9ssw4995100 0.2 1010290
03:00−9ssw4796100 1.4 1009250
06:00−10sw2296100 1.4 101034
09:00−13n459699 1.5 1011138
12:00−9nnw2292100 0.1 1011240
15:00−10nnw5693100 0.6 1010379
18:00−13nnw61092100 0.5 1012495
21:00−16nnw71489100 0.5 1016593
5 march, fri
fri500:00−20nnw61388100 0.0 1020337
03:00−25nw7158152 0.0 1023396
06:00−27nw716780 0.0 1025459
09:00−26nw714790 0.0 1027601
12:00−22nw711780 0.0 1029915
15:00−19nw8127735 0.0 10301313
18:00−20nw41185100 0.0 1032437
21:00−24wnw348884 0.0 103436
6 march, sat
sat600:00−25wnw448928 0.0 103568
03:00−27wnw349013 0.0 103653
06:00−27wnw33950 0.0 103624
09:00−23w24930 0.0 1036122
12:00−18w24810 0.0 1034457
15:00−15wsw358241 0.0 1032748
18:00−18ssw339192 0.0 103125
21:00−21ssw239151 0.0 103220
7 march, sun
sun700:00−22s23926 0.0 103020
03:00−21sse339436 0.0 102937
06:00−20se3595100 0.0 1028102
09:00−17se3496100 0.1 1028204
12:00−14sse1188100 0.2 1027375
15:00−12n1283100 0.3 1027548
18:00−16nw2293100 0.0 102820
21:00−19w129552 0.0 102920
8 march, mon
mon800:00−19sw239733 0.0 102920
03:00−20ssw3310039 0.0 102922
06:00−20s449911 0.0 102764
09:00−15s6109322 0.0 1026295
12:00−10ssw61091100 0.0 1022500
15:00−5ssw588599 0.0 1020825
18:00−6sw3488100 0.0 101875
21:00−8wsw2391100 0.0 101928